GFSNIL_con_3kmhel_000.txt.gz
Helicity
153 165 147 157 252 450 581 691 784 801 833 743 483 524 609 586 327 168 173 182 162 143
206 185 200 263 341 481 709 835 954 850 464 466 386 179 44 107 136 152 177 155 155 151
259 289 309 360 408 500 535 506 402 434 301 121 -94 -84 9 85 135 145 152 146 138 135
295 336 390 409 367 352 324 264 149 -11 -26 -35 -4 44 91 97 102 112 117 121 111 104
306 382 428 414 335 311 259 179 74 11 29 75 64 61 78 94 104 108 112 113 124 105
307 329 374 350 284 225 145 94 76 89 93 90 85 93 98 109 120 124 112 105 102 93
343 355 357 311 242 196 182 128 97 86 88 88 90 95 98 107 118 120 115 114 111 112
404 428 372 366 391 263 143 84 72 92 93 103 109 109 157 159 151 138 121 108 97 90
358 365 390 275 145 -36 -30 36 103 117 110 112 119 163 169 152 129 112 104 99 89 89
96 64 -67 -93 -73 -41 74 112 112 116 122 118 131 130 134 112 100 105 128 135 130 93
95 116 113 70 81 114 129 131 124 116 115 129 117 112 92 78 95 143 130 -72 94 100
164 134 119 99 92 112 125 122 121 118 115 112 100 73 69 80 122 34 -39 67 73 85
91 95 93 106 110 116 119 113 112 126 115 84 72 57 62 95 51 -32 12 64 88 63
82 101 116 115 108 102 108 118 117 98 72 58 74 80 68 21 -22 -9 43 107 92 98

GFSNIL_con_3kmhel_003.txt.gz
Helicity
135 163 166 159 156 196 286 404 554 690 710 775 951 818 806 832 692 411 356 236 134 162
131 132 169 202 236 273 351 421 495 538 610 664 663 730 394 199 97 26 48 88 144 189
124 165 214 288 294 340 372 364 320 308 274 341 260 -17 -29 -8 36 47 65 119 138 148
117 179 287 340 381 351 316 278 224 196 174 31 -18 13 32 44 63 89 97 100 104 109
99 190 329 377 331 299 258 205 135 125 119 83 66 85 91 84 100 112 99 94 109 112
90 210 286 355 358 292 302 233 157 132 118 115 112 110 107 112 109 109 115 118 120 111
159 222 319 365 451 431 381 237 165 107 112 83 74 86 95 112 138 147 137 120 110 109
231 295 398 464 441 358 239 131 36 28 74 109 102 101 151 165 148 126 109 99 94 87
201 193 187 151 106 82 35 0 39 86 119 111 110 116 108 104 100 92 89 84 72 83
86 92 97 88 74 78 88 102 116 130 135 120 125 120 126 115 108 108 102 95 98 90
163 133 106 111 126 121 101 100 129 131 137 134 121 115 102 88 108 113 111 111 104 78
116 133 115 108 91 91 115 115 117 107 114 103 89 80 74 81 105 102 103 98 52 31
65 89 102 94 92 103 100 97 111 101 94 81 75 66 69 76 95 91 78 10 13 29
99 92 105 101 107 103 107 101 90 78 64 63 63 63 52 55 82 92 -8 -14 14 76

GFSNIL_con_3kmhel_006.txt.gz
Helicity
117 105 94 93 119 162 223 259 291 345 378 409 472 511 565 640 723 700 694 663 321 245
74 55 66 108 162 231 297 319 338 323 286 249 224 270 292 304 177 253 94 -40 -69 -35
64 86 115 154 156 251 308 289 259 230 201 125 70 85 42 34 43 -87 -38 12 23 44
67 67 85 125 169 223 264 271 249 204 178 144 80 84 62 47 46 49 62 73 77 71
55 52 95 178 250 276 333 280 275 274 153 142 140 115 88 74 73 68 69 68 82 79
41 81 166 273 322 350 361 345 307 193 103 67 75 94 89 82 80 74 78 92 103 97
144 139 198 252 320 351 364 258 169 129 105 79 74 78 77 88 104 98 90 83 81 84
145 128 144 158 177 172 141 109 83 81 48 84 92 89 125 137 123 109 95 81 80 74
114 116 119 139 146 105 123 113 88 95 103 95 106 118 130 119 96 90 88 93 76 75
234 160 125 117 108 98 89 90 92 100 117 120 113 119 100 86 95 98 100 90 82 69
118 104 84 87 99 106 108 104 99 100 110 104 90 89 79 74 96 104 96 76 65 69
106 117 106 87 71 80 84 87 100 96 82 76 60 54 54 65 82 81 65 49 62 79
129 108 84 80 78 83 96 108 92 76 66 49 54 37 51 64 62 46 41 54 58 37
92 76 87 84 95 102 103 89 80 71 59 56 46 44 48 57 45 37 35 46 54 15

GFSNIL_con_3kmhel_009.txt.gz
Helicity
145 103 72 32 51 89 99 128 187 225 253 246 252 268 279 266 307 365 380 396 396 330
121 81 41 35 52 77 79 153 223 279 269 225 221 213 174 155 84 37 -96 -43 -106 -108
91 37 15 10 39 87 170 244 274 277 254 244 220 196 106 92 61 -15 -43 -54 -72 -72
72 14 41 74 112 152 214 232 277 295 289 247 169 82 49 41 40 22 23 13 11 13
44 74 76 115 181 219 243 284 270 248 207 93 3 18 74 69 59 49 42 42 48 48
67 78 108 138 197 238 260 282 257 173 77 64 99 112 108 83 49 48 42 50 56 67
154 97 120 123 122 136 139 147 120 81 92 119 119 98 85 78 62 59 71 72 71 72
101 133 94 70 91 95 101 97 88 84 63 54 57 52 72 71 85 87 80 71 66 69
112 70 91 89 96 108 107 106 97 97 93 92 86 123 118 114 86 69 62 61 58 62
96 92 106 126 106 90 80 77 76 80 87 98 104 107 90 82 67 66 62 57 50 45
109 106 131 102 78 69 70 68 70 86 102 91 78 78 70 64 54 60 52 39 30 36
122 109 94 73 71 68 64 72 91 93 79 71 65 65 56 59 56 47 35 28 27 26
99 85 72 76 68 71 78 90 91 80 77 68 58 46 55 61 56 37 27 17 15 19
84 77 76 72 74 82 85 89 85 75 68 62 58 53 59 72 65 48 18 10 12 17